Location: Bouillon
(43.5000°N, 0.5000°W)
Time: 14:59:45
(UTC+00:00)

Daily predictions for brighter satellites

Satellite Brightness Start Highest point End
(mag) Time Altitude Azimuth Time Altitude Azimuth Time Altitude Azimuth
CZ-4B R/B 3.8 20:07:52 10° S 20:13:03 57° W 20:18:18 10° NNW
Okean O Rocket 1.8 20:10:44 10° S 20:15:08 76° WSW 20:19:32 10° NNW
SeaSat 1 3.3 20:13:10 10° ESE 20:17:41 38° NE 20:22:12 10° NNW
Cosmos 1766 3.3 20:14:43 10° N 20:18:27 60° E 20:22:10 10° SSE
EXPRESS MD2 2.7 20:14:51 10° SW 20:18:29 52° SSE 20:20:53 10° ENE
CARTOSAT-1 4.2 20:15:06 10° S 20:19:16 55° W 20:23:28 10° NNW
SL-24 R/B 4.4 20:15:37 10° SSE 20:20:41 87° WSW 20:25:05 10° NNW
CZ-4 R/B 3.7 20:19:06 10° SSW 20:22:13 22° W 20:25:24 10° NW
Cosmos 2026 Rocket 4.0 20:16:27 10° S 20:22:39 88° E 20:28:48 10° N
Cosmos 1470 Rocket 3.6 20:18:37 10° N 20:22:57 62° E 20:27:13 10° SSE
Cosmos 1066 Rocket 4.3 20:17:14 10° S 20:23:04 77° E 20:28:51 10° NNE
OPS 6432 4.4 20:20:53 10° NW 20:23:57 68° SW 20:27:14 10° SSE
USA 234 3.3 20:18:09 10° NE 20:24:40 66° SE 20:31:08 10° SW
IRIDIUM 104 4.4 20:22:33 10° N 20:27:46 66° E 20:32:56 10° SSE
Cosmos 1666 Rocket 4.3 20:26:07 10° NNW 20:30:21 54° W 20:34:35 10° S
Cosmos 2360 Rocket 4.3 20:27:25 10° N 20:30:38 15° NE 20:33:50 10° ENE
Cosmos 2285 Rocket 4.2 20:26:35 10° SSW 20:32:55 82° WNW 20:39:21 10° NNE
Cosmos 2333 Rocket 4.3 20:32:03 10° N 20:35:24 16° NE 20:38:45 10° E
Atlas Centaur 2 3.8 20:29:16 10° SW 20:36:12 31° S 20:43:09 10° ESE
IRIDIUM 114 4.3 20:31:40 10° N 20:36:55 80° E 20:42:08 10° S
ERS-1 Rocket 3.5 20:33:20 10° SE 20:38:04 45° ENE 20:42:51 10° N
SL-16 R/B 3.4 20:33:58 10° N 20:38:55 30° NE 20:43:51 10° ESE
Cosmos 1441 Rocket 4.2 20:35:57 10° NNE 20:39:08 29° ENE 20:41:54 12° SE
Resurs 01 Rocket 3.3 20:35:56 10° SSW 20:39:53 32° W 20:43:51 10° NNW
Cosmos 1763 Rocket 3.5 20:35:24 10° NNW 20:40:40 73° ENE 20:45:43 11° SSE
Cosmos 2369 3.8 20:35:03 10° NNW 20:40:48 87° ENE 20:46:32 10° SSE
Lacrosse 5 rocket 3.7 20:38:56 10° W 20:41:17 15° WSW 20:43:36 10° SSW
Cosmos 2082 Rocket 2.4 20:35:57 10° SSW 20:41:41 81° WNW 20:47:25 10° NNE
Spot 2 Rocket 4.3 20:38:13 11° SE 20:42:42 37° ENE 20:47:22 10° N
IRIDIUM 103 4.4 20:40:50 10° N 20:46:05 85° W 20:51:18 10° S
Cosmos 1933 Rocket 3.8 20:42:53 10° N 20:47:15 57° E 20:51:18 12° SSE
SPOT 5 2.6 20:42:59 10° SSE 20:47:17 84° ENE 20:51:40 10° NNW
Cosmos 1470 2.7 20:44:11 10° N 20:47:50 62° E 20:51:09 12° SSE
Cosmos 1908 3.4 20:51:31 10° N 20:55:02 50° E 20:57:41 16° SSE
Cosmos 1674 3.2 20:55:29 10° SSW 20:58:52 53° W 21:02:16 10° N
IRS-1C Rocket 4.1 20:54:04 10° SSE 20:59:19 89° WSW 21:04:36 10° NNW
ATLAS 2AS CENTAUR R/B 4.1 20:55:12 10° NNW 21:01:07 29° NE 21:06:51 10° E
KORONAS-FOTON 4.2 21:01:48 10° SSW 21:05:28 61° W 21:09:10 10° N
Ariane Rocket 3.2 21:03:06 16° SSE 21:07:09 59° ENE 21:12:10 10° N
Cosmos 468 Rocket 4.0 21:02:34 10° NNW 21:07:50 84° ENE 21:11:55 17° SSE
Cosmos 1842 4.0 21:05:27 10° SSW 21:08:59 49° W 21:12:34 10° N
COSMOS 2406 4.0 21:09:19 10° SW 21:14:57 56° WNW 21:20:38 10° NNE
SPOT 3 Rocket 3.6 21:12:14 18° SSE 21:16:05 65° ENE 21:21:12 10° N
Meteor 1-13 Rocket 4.3 21:11:48 10° S 21:17:38 84° E 21:23:23 10° NNE
SL-27 R/B 4.2 21:19:33 12° E 21:19:33 12° E 21:20:06 10° ENE
Cosmos 1553 Rocket 4.4 21:15:59 10° NNW 21:22:05 63° W 21:28:13 10° S
Cosmos 1980 Rocket 3.6 21:18:27 10° NW 21:23:27 32° WSW 21:28:23 10° SSW
Cosmos 2322 Rocket 3.0 21:18:20 10° NNW 21:23:41 41° ENE 21:27:28 18° ESE
S3M 4.0 21:17:55 10° N 21:24:19 74° E 21:29:06 18° SSE
Cosmos 1655 Rocket 4.2 21:22:56 16° SSE 21:27:54 57° E 21:34:09 10° NNE
SJ 16-02 2.8 21:28:53 18° ESE 21:29:26 19° E 21:32:27 10° NE
Cosmos 2278 3.7 21:26:58 10° NNW 21:32:42 88° WSW 21:36:25 23° SSE
Landsat 5 3.7 21:29:14 10° NNE 21:33:06 48° E 21:35:02 27° SSE
Landsat 4 3.5 21:32:54 27° S 21:34:40 74° WSW 21:38:07 10° NNW
Cosmos 1741 Rocket 4.3 21:31:50 20° S 21:35:15 49° ESE 21:40:21 10° NNE
USA 245 4.0 21:34:18 19° SSW 21:36:19 42° W 21:40:04 10° NNW
Tiangong -1.3 21:34:19 10° W 21:37:12 33° SSW 21:37:28 33° S
Cosmos 2266 Rocket 4.1 21:31:17 10° S 21:37:34 86° W 21:44:00 10° N
USA 281 4.3 21:32:45 14° ESE 21:37:36 35° NE 21:43:26 10° N
Cosmos 540 Rocket 4.2 21:32:50 10° NNW 21:37:47 48° WSW 21:41:30 17° S
Cosmos 1400 Rocket 2.7 21:35:14 19° S 21:37:56 89° W 21:41:49 10° N
MetOp-A 4.3 21:37:25 25° SE 21:40:21 57° ENE 21:45:31 10° N
Okean 3 4.3 21:39:26 27° ESE 21:40:35 31° E 21:44:16 10° NNE
Terra 2.3 21:37:48 17° S 21:41:17 54° W 21:45:54 10° NNW
Cosmos 1733 Rocket 3.5 21:38:09 10° N 21:42:25 47° ENE 21:44:16 29° SE
Cosmos 968 Rocket 3.9 21:41:01 26° SSE 21:43:20 41° ESE 21:48:10 10° NE
Cosmos 2237 4.2 21:38:48 10° NNW 21:44:33 81° WSW 21:47:58 25° SSE
SL-4 R/B 4.1 21:42:48 10° WNW 21:46:10 27° N 21:49:41 10° NE
Cosmos 2228 Rocket 3.1 21:44:42 26° S 21:47:11 69° E 21:51:45 10° NNE
Cosmos 1315 Rocket 4.1 21:51:04 23° E 21:51:25 23° E 21:54:36 10° NE
Cosmos 2219 Rocket 3.5 21:47:20 10° N 21:52:15 29° NE 21:55:47 16° ESE
ATLAS CENTAUR R/B 1.1 21:52:13 45° SE 21:52:39 48° ESE 21:56:06 10° NE
SeaSat 1 3.7 21:51:57 16° SSW 21:55:08 31° WSW 21:59:30 10° NW
Meteor 2-10 Rocket 3.6 21:51:53 10° NNW 21:57:32 82° W 22:00:34 27° S
Cosmos 1953 3.7 21:57:01 10° NNE 22:00:08 23° ENE 22:00:51 22° E
H-2A R/B 4.5 21:59:30 15° E 22:01:06 18° ENE 22:04:02 10° NNE
Cosmos 1455 3.7 22:00:40 10° NNE 22:03:20 20° ENE 22:03:41 20° E
Meteor 1-23 Rocket 4.5 21:58:52 14° SSW 22:03:42 68° WNW 22:09:25 10° N
Okean 1-7 3.7 22:04:58 34° ESE 22:05:49 37° E 22:09:49 10° NNE
USA 234 4.3 22:01:19 10° NE 22:07:30 47° NNW 22:13:41 10° W
BREEZE-M DEB (TANK) 2.5 22:06:03 10° WNW 22:08:11 61° NNE 22:09:09 36° E
CZ-2C R/B 4.1 22:06:32 10° NNE 22:10:45 42° E 22:11:36 38° SE
Cosmos 2315 Rocket 4.2 22:09:02 10° NNW 22:15:21 68° W 22:19:12 25° S
Cosmos 2360 Rocket 2.2 22:09:54 10° NNW 22:15:37 78° ENE 22:18:06 35° SE
Cosmos 841 Rocket 4.1 22:13:16 10° NNW 22:18:20 49° WSW 22:20:45 28° SSW
SL-14 R/B 4.1 22:17:25 24° SW 22:19:18 44° WNW 22:22:57 10° N
RESURS DK-1 2.5 22:16:12 10° NNW 22:20:14 61° WSW 22:21:10 46° SSW
Cosmos 2333 Rocket 2.2 22:14:52 10° NNW 22:20:39 78° ENE 22:23:08 36° SE
SL-16 R/B 2.9 22:17:48 10° NW 22:23:11 45° WSW 22:25:47 27° SSW
Atlas Centaur 2 3.7 22:17:41 10° WSW 22:24:39 30° S 22:25:49 29° S
Cosmos 1300 3.5 22:22:43 10° NNW 22:26:03 38° W 22:26:54 32° SW
Aureole 3 3.6 22:30:50 43° SW 22:31:54 63° WNW 22:36:18 10° N
Cosmos 1703 Rocket 3.9 22:32:44 45° ESE 22:33:24 49° E 22:37:43 10° NNE
Cosmos 1833 4.1 22:30:08 25° SSW 22:33:33 88° WNW 22:39:12 10° NNE
Cosmos 1862 Rocket 4.2 22:32:47 27° SW 22:34:50 49° WNW 22:39:09 10° N
Cosmos 1346 Rocket 3.6 22:32:04 10° NNW 22:35:42 40° W 22:36:35 34° SW
Meteor 1-4 Rocket 2.7 22:41:49 51° WNW 22:41:49 51° WNW 22:44:32 10° N
Cosmos 1932 4.4 22:38:31 26° SSW 22:42:20 78° ESE 22:48:38 10° NE
Cosmos 839 Rocket 4.1 22:38:07 10° NNW 22:45:01 80° ENE 22:47:42 37° SE
Meteor 1-16 Rocket 4.4 22:39:19 10° NNW 22:45:14 72° W 22:47:38 37° S
BlueWalker 3 4.5 22:50:03 11° ENE 22:50:03 11° ENE 22:50:12 10° ENE
Cosmos 2322 4.5 22:41:34 10° NNW 22:47:00 43° ENE 22:49:30 28° ESE
Cosmos 2237 Rocket 4.4 22:43:58 10° N 22:47:41 17° NE 22:51:22 10° E
SL-27 R/B 4.1 22:50:57 20° WNW 22:51:24 21° WNW 22:53:37 10° NNW
ATLAS 2AS CENTAUR R/B 2.6 22:45:53 10° NW 22:52:41 76° WSW 22:55:16 40° SSE
Cosmos 2333 4.2 22:47:11 10° NNW 22:52:57 76° WSW 22:54:50 44° S
ARIANE 5 R/B 2.6 22:54:59 58° SSW 22:55:41 71° WSW 23:00:01 10° NNW
Okean 2 3.9 23:00:22 44° WSW 23:01:07 51° W 23:05:02 10° N
PSLV R/B 3.9 22:58:18 10° N 23:02:17 70° WNW 23:02:50 60° SW
Cosmos 1745 Rocket 4.0 23:05:11 43° S 23:07:24 75° E 23:13:46 10° N
SJ 16-02 2.4 23:05:35 26° WSW 23:07:27 39° WNW 23:11:32 10° N
Cosmos 2322 Rocket 3.3 23:02:37 10° NW 23:07:34 32° WSW 23:09:15 27° SW
Cosmos 1570 Rocket 4.2 23:02:31 10° NNW 23:07:52 66° ENE 23:09:22 45° SE
COSMOS 2455 3.4 23:08:59 37° SE 23:09:41 38° ESE 23:15:11 10° NE
Cosmos 2297 Rocket 3.4 23:13:10 26° ESE 23:13:29 26° ESE 23:18:03 10° NE
Nadezhda 1 Rocket 3.9 23:13:17 10° N 23:19:38 85° W 23:21:42 45° S
Cosmos 1408 3.7 23:22:14 32° NNE 23:22:14 32° NNE 23:24:02 10° NNE
GP-B 3.7 23:16:59 10° N 23:21:13 46° W 23:22:05 41° WSW
USA 281 3.6 23:19:37 37° SSW 23:21:52 51° WSW 23:28:16 10° NNW
SL-4 R/B 3.9 23:22:11 10° NW 23:25:46 29° NNE 23:29:33 10° ENE
COSMOS 2428 2.8 23:20:45 10° NNW 23:26:27 71° ENE 23:28:13 44° SE
Cosmos 1315 Rocket 4.5 23:26:20 23° W 23:27:26 26° WNW 23:30:50 10° NNW
ATLAS CENTAUR R/B 3.8 23:28:15 10° W 23:30:34 16° NW 23:32:57 10° N
GEOS 3 Rocket 4.0 23:26:31 10° NE 23:31:25 43° ESE 23:31:28 43° ESE
Cosmos 1782 Rocket 3.5 23:29:44 10° NNW 23:34:01 65° W 23:34:15 64° WSW
CZ-3 Stage 3 4.1 23:09:58 10° W 23:34:43 38° SSW 23:37:06 34° S
Cosmos 1242 Rocket 4.3 23:35:32 21° NW 23:35:32 21° NW 23:37:06 10° NNW
H-2A R/B 3.0 23:35:29 46° WSW 23:35:41 46° W 23:39:50 10° NNW
Cosmos 1953 3.9 23:32:46 10° NW 23:35:52 24° W 23:35:58 23° W
Cosmos 2219 Rocket 2.6 23:30:58 10° NW 23:36:23 47° WSW 23:37:28 41° SW
Spot 2 4.4 23:35:40 60° S 23:36:34 81° WSW 23:41:41 10° NNW
Cosmos 1455 3.8 23:34:55 10° NW 23:37:24 22° W 23:37:24 22° W
Cosmos 2208 Rocket 3.9 23:33:22 10° NNW 23:38:36 89° ENE 23:39:34 60° SSE
Cosmos 371 Rocket 3.3 23:39:00 57° ESE 23:39:15 58° ESE 23:44:00 10° NNE
Cosmos 158 Rocket 3.9 23:35:46 10° NNW 23:41:07 87° ENE 23:42:07 59° SSE
Spot 4 4.2 23:42:36 47° SW 23:43:11 50° W 23:47:51 10° NNW
Cosmos 836 Rocket 4.4 23:38:16 10° NNW 23:43:30 81° ENE 23:44:34 57° SE
Cosmos 773 Rocket 4.4 23:43:22 10° NNW 23:48:26 55° ENE 23:49:51 41° ESE
ALOS 2 2.7 23:49:16 57° WSW 23:49:27 58° W 23:53:47 10° NNW
Cosmos 1503 Rocket 4.1 23:51:55 54° SE 23:52:40 59° ESE 23:57:54 10° NNE
